[[{"header":{"parameterUnit":"m.s-1","parameterCategory":1,"la1":30.2991,"la2":30.254,"lo1":-89.0895,"lo2":-89.0444,"dy":0.0017,"dx":0.0017,"nx":28,"ny":28,"refTime":"2026-02-10T09:00:00:Z","depth":0,"parameterNumber":2,"parameterNumberName":"U-component_of_WINDS"},"data":[0,0,0,0,0,0,0,0,0,0,0,0,0,0,0,0,0,0,0,0,0,0,0,0,0,0,0,0,0,0,0,0,0,0,0,0,0,0,0,0,0,0,0,0,0,0,0,0,0,0,0,0,0,0,0,0,0,0,0.3864,0.3865,0,0.3899,0.39,0.39,0.3891,0.3891,0.389,0.3889,0.3926,0.3928,0.3929,0,0,0,0,0,0,0,0,0,0,0,0,0,0.3791,0.3793,0.3864,0.3865,0.3865,0.3899,0.39,0.39,0.3891,0.3891,0.389,0.3889,0.3926,0.3928,0.3929,0,0,0,0,0,0,0,0,0,0,0,0,0,0.3824,0.3793,0.3864,0.3865,0.3865,0.3899,0.39,0.39,0.3892,0.3891,0.389,0.3889,0.3925,0.3927,0.393,0.3965,0,0,0.3937,0.3938,0,0,0,0,0,0,0,0,0.3823,0.3827,0.3864,0.3865,0.3865,0.389,0.3887,0.3922,0.3892,0.3882,0.3889,0.3888,0.3915,0.3918,0.3927,0.3967,0.3969,0.3937,0.3939,0.394,0.3941,0,0,0,0,0,0,0,0.382,0.3826,0.3878,0.3865,0.3866,0.3864,0.3867,0.3894,0.3904,0.3882,0.3882,0.3886,0.3915,0.3925,0.3928,0.3969,0.3937,0.3939,0.3941,0.3942,0.404,0.4042,0,0,0,0,0,0,0.3817,0.3824,0.3877,0.3879,0.3841,0.3866,0.387,0.3883,0.3903,0.3905,0.3887,0.3886,0.3921,0.3925,0.3929,0.3972,0.394,0.3942,0.3944,0.4039,0.4041,0.4042,0,0,0,0,0,0,0.3816,0.3822,0.3876,0.3851,0.3858,0.3868,0.3883,0.3884,0.3894,0.3907,0.3909,0.3895,0.392,0.3926,0.3956,0.3973,0.3943,0.3945,0.4038,0.404,0.4041,0.4059,0,0,0,0,0,0,0.3814,0.3822,0.3835,0.3852,0.3859,0.3902,0.3884,0.3886,0.3898,0.3896,0.3915,0.3917,0.392,0.3953,0.3959,0.3976,0.3947,0.4036,0.4039,0.4041,0.4057,0.4061,0.4064,0,0,0,0,0,0.3811,0.3839,0.3836,0.3842,0.3876,0.3903,0.3907,0.391,0.3899,0.3913,0.3921,0.3916,0.3971,0.3956,0.3963,0.3981,0.4035,0.4038,0.4041,0.4055,0.406,0.4064,0,0,0,0,0,0,0.3824,0.3841,0.3838,0.3871,0.3886,0.3901,0.3919,0.3915,0.3934,0.3931,0.3935,0.3939,0.397,0.3979,0.3962,0.4017,0.4001,0.4006,0.401,0.4015,0.4019,0.4016,0.3949,0,0,0,0,0,0.383,0.3851,0.3864,0.3893,0.39,0.3908,0.392,0.3921,0.3936,0.3942,0.3953,0.3968,0.3989,0.4002,0.4022,0.4058,0.4062,0.4074,0.4078,0.4081,0.4084,0.4104,0.411,0.4051,0.4051,0.4051,0,0,0.3844,0.3856,0.3869,0.3895,0.3907,0.3928,0.3913,0.3936,0.3952,0.3946,0.3975,0.3984,0.4001,0.4035,0.405,0.4043,0.4102,0.4084,0.4086,0.4088,0.4108,0.4113,0.4118,0.4052,0.4052,0.4052,0,0,0.3881,0.3891,0.3916,0.3928,0.3945,0.3951,0.3957,0.3973,0.3978,0.4008,0.4004,0.4023,0.4058,0.4071,0.4082,0.4124,0.412,0.413,0.415,0.417,0.4174,0.4179,0.4194,0.4199,0.4133,0.4133,0.4133,0,0.3896,0.3927,0.393,0.3953,0.3965,0.396,0.3986,0.3997,0.402,0.4029,0.402,0.4065,0.4076,0.4113,0.4123,0.4132,0.4139,0.4128,0.4173,0.4178,0.4182,0.4196,0.4202,0.4135,0.4134,0.4134,0.4134,0,0.3945,0.3967,0.3985,0.4007,0.4021,0.4046,0.4052,0.4066,0.4066,0.4073,0.4103,0.4117,0.4139,0.4148,0.4148,0.4185,0.418,0.4172,0.4157,0.4188,0.4202,0.4208,0.4136,0.4136,0.4135,0.4135,0,0,0.399,0.4013,0.402,0.403,0.4049,0.4066,0.4091,0.4112,0.4125,0.4141,0.4162,0.4192,0.4185,0.4198,0.4199,0.4217,0.4249,0.4207,0.4207,0.4215,0.4291,0.4297,0.4303,0.4247,0.4248,0.4249,0.429,0,0.4028,0.4071,0.4074,0.4112,0.4133,0.4129,0.415,0.4164,0.4171,0.419,0.4198,0.4219,0.4208,0.4216,0.4233,0.4242,0.4265,0.4239,0.4267,0.4268,0.4262,0.431,0.4316,0.4354,0.4295,0.4296,0.4297,0,0.4078,0.4096,0.4136,0.4153,0.4161,0.418,0.4201,0.4219,0.4235,0.4239,0.4253,0.4253,0.4278,0.4262,0.4298,0.428,0.4292,0.4298,0.43,0.4302,0.4284,0.4315,0.4366,0.4372,0.4305,0.4304,0.4304,0,0.4107,0.4141,0.4169,0.4178,0.4198,0.4212,0.4221,0.4236,0.4249,0.4267,0.4276,0.4297,0.4308,0.4325,0.433,0.4318,0.4366,0.435,0.437,0.437,0.438,0.438,0.4435,0.4388,0.4388,0.4388,0.4387,0,0.4149,0.4174,0.4183,0.42,0.4229,0.4232,0.426,0.4268,0.4282,0.4302,0.43,0.4319,0.4324,0.4344,0.4349,0.4378,0.4383,0.4387,0.4388,0.4388,0.4387,0.4395,0.4393,0.4389,0.4389,0.4388,0.4388,0,0.4186,0.4193,0.4224,0.424,0.4245,0.4265,0.4279,0.4297,0.4303,0.4328,0.4334,0.4345,0.4368,0.4375,0.4403,0.4406,0.4441,0.4439,0.4435,0.4435,0.4455,0.4453,0.4518,0.4527,0.4473,0.4474,0.4474,0,0.4212,0.4231,0.425,0.4263,0.4272,0.4293,0.4307,0.4311,0.4325,0.4346,0.4361,0.4384,0.4402,0.444,0.445,0.4472,0.4471,0.4492,0.4474,0.4473,0.4472,0.4471,0.4473,0.4496,0.4496,0.4497,0.4497,0,0.4258,0.4261,0.428,0.4301,0.4317,0.4333,0.4349,0.436,0.4367,0.4383,0.4406,0.4421,0.445,0.4473,0.4495,0.4505,0.4502,0.4503,0.4508,0.4508,0.4505,0.4507,0.4444,0.4501,0.4501,0.45,0.45,0.45,0.4291,0.4308,0.4324,0.4346,0.4358,0.4373,0.439,0.4399,0.4419,0.4442,0.4444,0.447,0.4487,0.4516,0.4527,0.4548,0.4542,0.455,0.4552,0.4554,0.4556,0.4502,0.4552,0.4552,0.4551,0.4551,0.4551,0,0.4337,0.4347,0.4367,0.439,0.4407,0.4403,0.442,0.4435,0.4458,0.4473,0.4492,0.4519,0.4542,0.4554,0.4577,0.4591,0.4591,0.4597,0.4596,0.4599,0.456,0.4553,0.4597,0.4597,0.4597,0.4597,0.4597,0.4597,0.4363,0.4392,0.4397,0.4432,0.4442,0.4467,0.4478,0.4492,0.4504,0.4535,0.4554,0.4562,0.4576,0.46,0.4621,0.4624,0.4632,0.464,0.4642,0.4606,0.4601,0.4597,0.459,0.4641,0.4641,0.4679,0.4679,0.468]},{"header":{"parameterUnit":"m.s-1","parameterCategory":1,"la1":30.2991,"la2":30.254,"lo1":-89.0895,"lo2":-89.0444,"dy":0.0017,"dx":0.0017,"nx":28,"ny":28,"refTime":"2026-02-10T09:00:00:Z","depth":0,"parameterNumber":3,"parameterNumberName":"V-component_of_WINDS"},"data":[0,0,0,0,0,0,0,0,0,0,0,0,0,0,0,0,0,0,0,0,0,0,0,0,0,0,0,0,0,0,0,0,0,0,0,0,0,0,0,0,0,0,0,0,0,0,0,0,0,0,0,0,0,0,0,0,0,0,2.1839,2.1839,0,2.178,2.1779,2.1779,2.1699,2.1697,2.1696,2.1695,2.1634,2.1634,2.1634,0,0,0,0,0,0,0,0,0,0,0,0,0,2.1883,2.1883,2.1839,2.1839,2.1838,2.178,2.1779,2.1779,2.1699,2.1697,2.1696,2.1694,2.1635,2.1634,2.1634,0,0,0,0,0,0,0,0,0,0,0,0,0,2.1848,2.1883,2.184,2.1791,2.1786,2.178,2.1779,2.1778,2.1699,2.1697,2.1695,2.1693,2.1635,2.1634,2.1634,2.1671,0,0,2.1632,2.1632,0,0,0,0,0,0,0,0,2.185,2.1847,2.1799,2.1794,2.1789,2.1745,2.1773,2.1742,2.17,2.1732,2.1695,2.1692,2.1673,2.1669,2.1662,2.1668,2.1665,2.1632,2.1632,2.1631,2.1631,0,0,0,0,0,0,0,2.1853,2.1849,2.1816,2.1798,2.1792,2.1772,2.1765,2.1767,2.1715,2.1729,2.1723,2.1717,2.167,2.1663,2.166,2.1664,2.1632,2.1632,2.1631,2.1631,2.1697,2.1699,0,0,0,0,0,0,2.1862,2.1851,2.1818,2.1814,2.1815,2.1773,2.1765,2.1761,2.1714,2.1705,2.1719,2.1714,2.1665,2.1661,2.1658,2.1698,2.1631,2.1631,2.1631,2.1695,2.1697,2.1699,0,0,0,0,0,0,2.1864,2.186,2.182,2.1831,2.1824,2.1775,2.1771,2.1761,2.1754,2.1707,2.1697,2.1722,2.1663,2.1659,2.1668,2.1695,2.1631,2.163,2.1692,2.1695,2.1698,2.178,0,0,0,0,0,0,2.1865,2.1861,2.1875,2.1832,2.1824,2.1832,2.1772,2.1761,2.1753,2.1746,2.1707,2.1698,2.1661,2.1669,2.1667,2.1693,2.163,2.169,2.1694,2.1697,2.1774,2.1785,2.1794,0,0,0,0,0,2.1867,2.19,2.1876,2.1872,2.184,2.1833,2.1829,2.1786,2.1756,2.1769,2.1738,2.17,2.1692,2.1671,2.1668,2.1694,2.1688,2.1693,2.1697,2.177,2.1783,2.1794,0,0,0,0,0,0,2.1948,2.1894,2.1866,2.1887,2.1865,2.182,2.1836,2.1801,2.1788,2.1781,2.1728,2.172,2.1736,2.1715,2.1693,2.1727,2.1684,2.1688,2.174,2.1752,2.1762,2.1767,2.1629,0,0,0,0,0,2.1968,2.1967,2.192,2.1942,2.1933,2.1886,2.1882,2.185,2.1826,2.1816,2.1786,2.1764,2.1757,2.1753,2.1744,2.177,2.1761,2.1787,2.1797,2.1805,2.181,2.1823,2.1834,2.1715,2.1715,2.1715,0,0,2.201,2.198,2.1983,2.1958,2.1937,2.1938,2.1879,2.1882,2.1881,2.1817,2.1824,2.1801,2.1773,2.1791,2.1798,2.1775,2.1841,2.1811,2.1818,2.1819,2.1829,2.184,2.185,2.1718,2.1717,2.1717,0,0,2.2087,2.2064,2.208,2.2061,2.203,2.1999,2.2003,2.1963,2.1945,2.1951,2.1902,2.1901,2.1889,2.1871,2.1861,2.1929,2.1893,2.1927,2.198,2.1993,2.2003,2.2011,2.2036,2.2046,2.1932,2.1932,2.1932,0,2.2143,2.2141,2.2093,2.2098,2.2089,2.2029,2.2045,2.2029,2.1998,2.1992,2.1967,2.1951,2.1927,2.1941,2.1958,2.1951,2.1954,2.1933,2.2005,2.2013,2.202,2.2043,2.2053,2.1937,2.1936,2.1936,2.1935,0,2.2211,2.2211,2.2228,2.2199,2.219,2.2202,2.2155,2.2152,2.2121,2.2092,2.2099,2.2069,2.2053,2.2053,2.2022,2.2062,2.2049,2.2015,2.1971,2.2037,2.2058,2.2066,2.1943,2.1942,2.194,2.1939,0,0,2.2339,2.2282,2.2289,2.2275,2.2237,2.2236,2.2244,2.2227,2.2226,2.2206,2.2212,2.2203,2.2171,2.2159,2.2126,2.2137,2.2194,2.2102,2.21,2.2121,2.2236,2.2263,2.2274,2.2169,2.2171,2.2172,2.2239,0,2.2409,2.242,2.2376,2.2398,2.2397,2.234,2.2347,2.2324,2.2297,2.2292,2.2262,2.2257,2.2215,2.2208,2.2216,2.2186,2.2217,2.218,2.2174,2.2175,2.2185,2.2285,2.2313,2.2379,2.2247,2.2248,2.2249,0,2.2493,2.2477,2.2499,2.2459,2.2457,2.2464,2.2445,2.2441,2.2414,2.2394,2.238,2.2341,2.2346,2.2303,2.2309,2.2285,2.2279,2.2264,2.2265,2.2264,2.2217,2.2288,2.2398,2.2409,2.2262,2.2261,2.226,0,2.2585,2.2569,2.258,2.2569,2.2523,2.253,2.2511,2.2481,2.2474,2.2457,2.2452,2.2436,2.2428,2.2417,2.2374,2.2347,2.2386,2.2339,2.2369,2.2371,2.2382,2.2382,2.2494,2.2376,2.2376,2.2376,2.2376,0,2.2668,2.2685,2.2621,2.2628,2.2644,2.2593,2.261,2.2586,2.256,2.2561,2.251,2.2512,2.2456,2.2452,2.2418,2.2429,2.2425,2.2409,2.24,2.2415,2.2417,2.2412,2.2407,2.2379,2.2378,2.2377,2.2377,0,2.2775,2.2733,2.2741,2.2696,2.2685,2.2699,2.2661,2.2665,2.2634,2.2637,2.2634,2.2586,2.2579,2.2535,2.2517,2.2495,2.2518,2.2499,2.2527,2.2522,2.2555,2.2553,2.2669,2.2682,2.2555,2.2557,2.2558,0,2.2832,2.2843,2.2799,2.2796,2.2779,2.2775,2.2767,2.2717,2.2711,2.2681,2.2689,2.2677,2.2666,2.2656,2.262,2.2606,2.2587,2.2629,2.2585,2.2599,2.2589,2.259,2.2591,2.2639,2.264,2.2642,2.2643,0,2.2938,2.2916,2.2907,2.289,2.2882,2.2867,2.2848,2.2849,2.2793,2.2789,2.2781,2.2772,2.2753,2.2742,2.2722,2.2702,2.2664,2.2657,2.2663,2.2679,2.2695,2.2688,2.2554,2.2655,2.2653,2.2653,2.2652,2.2652,2.3022,2.3029,2.2999,2.2991,2.2971,2.2955,2.2957,2.2926,2.2918,2.29,2.287,2.2866,2.2838,2.2807,2.279,2.2786,2.2763,2.2773,2.2775,2.2779,2.2787,2.2694,2.2781,2.2781,2.2781,2.278,2.278,0,2.3126,2.3104,2.3096,2.3072,2.3065,2.3028,2.3006,2.3003,2.3,2.2976,2.2965,2.2956,2.2945,2.2907,2.2892,2.2896,2.2878,2.2894,2.2894,2.289,2.2807,2.2803,2.2909,2.2909,2.2909,2.2909,2.2909,2.2909,2.318,2.319,2.3165,2.3165,2.3142,2.3138,2.3128,2.3113,2.3094,2.3085,2.3076,2.3051,2.3022,2.3004,2.2993,2.2982,2.2979,2.3001,2.2985,2.2908,2.2896,2.2884,2.2881,2.3001,2.3001,2.3069,2.3069,2.307]}]]